星链-32945 (STARLINK-32945)

导读

STARLINK-32945是美国太空探索技术公司(SpaceX)旗下星链(Starlink)低轨互联网星座的成员,于2025年2月27日发射升空。星链项目旨在打造全球覆盖、大容量低时延的天基通信系统,为全球提供高速卫星宽带服务,同时该星座也具备潜在军事应用价值。作为星链组网卫星之一,它部署在近地轨道,助力SpaceX推进全球卫星互联网的构建,截至2026年,SpaceX已发射超万颗星链卫星,在轨运营近万颗。

基本信息
目录编号:
63118
目录名称:
STARLINK-32945
国际标识:
2025-039Q
轨道中心:
EARTH
卫星名称:
星链-32945
卫星全名:
星链-32945 (STARLINK-32945)
卫星状态:
在轨 (已飞行472 天)
发射日期:
2025-02-27 UTC
国别 :
美国 (US)
星等 :
--
轨道信息
数据来源 国际轨道数据
星历时间: 2026-06-14T02:35:45+0800
13小时前
查看轨道信息
半长轴: 6861.12km
偏心率: 0.0001568
轨道倾角: 43.001°
近地点辐角 266.328°
升交点赤经 189.983°
平近点角 93.740°
近地点: 481.907km
远地点: 484.059km
周期: 94.265分钟
每日圈数: 15.276024
详细信息
固有亮度:
5
最大亮度:
2.5
卫星平台:
Starlink V1.0
覆盖范围:
全球
运营商:
太空探索技术公司
运营商所在国:
美国
制造商(研发单位):
太空探索技术公司
制造商所在国:
美国
使用方式:
暂无
卫星简介
Starlink 计划是 SpaceX 推出的全球卫星互联网项目,通过发射低轨道卫星,为全球尤其是偏远地区提供高速、低延迟的互联网服务。自 2019 年起,Starlink 已部署数千颗卫星,旨在缩小全球数字鸿沟,推动互联网普及。该项目还为军事、航空等行业提供通信支持,带来广泛经济效益。
2D轨道图
3D轨道图
轨道高度分析图
轨道倾角分析图
轨道综合分析图
查看轨道综合分析图